Hebron, NE

7:09 PM CST on December 07, 2019 (GMT -0600)
Hebron Municipal

Weather History for KHJH - September, 2019

Change the Weather History Date:

Sunday, September 1, 2019

  Actual Average Record
Temperature  
Mean Temperature 72 °F -  
Max Temperature 84 °F 86 °F 104 °F (1984)
Min Temperature 59 °F 61 °F 42 °F (1956)
Cooling Degree Days 6    
Growing Degree Days 22 (Base 50)    
Moisture  
Dew Point 66 °F    
Average Humidity 86    
Maximum Humidity 98    
Minimum Humidity 63    
Precipitation  
Precipitation 0.00 in - - ()
Sea Level Pressure  
Sea Level Pressure 30.11 in    
Wind  
Wind Speed 2 mph (South)    
Max Wind Speed 10 mph    
Max Gust Speed -    
Visibility 7 miles    
Events Fog    
Averages and records for this station are not official NWS values.
T = Trace of Precipitation, MM = Missing Value Source: NWS Daily Summary

Daily Weather History Graph

Daily Weather History Graph

Search for Another Location

Airport or City:

Astronomy

Sep. 01, 2019 Rise Set
Actual Time 6:57 AM CDT 8:02 PM CDT
Civil Twilight 6:29 AM CDT 8:30 PM CDT
Nautical Twilight 5:56 AM CDT 9:03 PM CDT
Astronomical Twilight 5:22 AM CDT 9:37 PM CDT
Moon 9:29 AM CDT (9/1) 9:50 PM CDT (9/1)
Length of Visible Light 14h 00m
Length of Day
13h 04m
Waxing Crescent, 8% of the Moon is Illuminated
Sep 1
Waxing Crescent
Sep 5
First Quarter
Sep 13
Full
Sep 21
Last Quarter
Sep 28
New

Hourly Weather History & Observations

Time (CDT) Temp. Heat Index Dew Point Humidity Pressure Visibility Wind Dir Wind Speed Gust Speed Precip Events Conditions
12:15 AM 62.4 °F - 61.2 °F 96% 30.16 in 10.0 mi Calm Calm - N/A   Clear
12:35 AM 62.1 °F - 61.0 °F 96% 30.16 in 10.0 mi Calm Calm - N/A   Clear
12:55 AM 61.9 °F - 60.8 °F 96% 30.16 in 10.0 mi Calm Calm - N/A   Clear
1:15 AM 61.5 °F - 60.6 °F 97% 30.15 in 7.0 mi Calm Calm - N/A   Clear
1:35 AM 61.3 °F - 60.4 °F 97% 30.15 in 7.0 mi SE 3.5 mph - N/A   Clear
1:55 AM 61.5 °F - 60.6 °F 97% 30.15 in 7.0 mi Calm Calm - N/A   Clear
2:15 AM 60.3 °F - 59.4 °F 97% 30.15 in 7.0 mi Calm Calm - N/A   Clear
2:35 AM 60.1 °F - 59.2 °F 97% 30.15 in 1.2 mi Calm Calm - N/A   Mist
2:55 AM 59.5 °F - 58.6 °F 97% 30.15 in 2.0 mi Calm Calm - N/A   Clear
3:15 AM 59.5 °F - 58.8 °F 97% 30.14 in 1.8 mi Calm Calm - N/A   Mostly Cloudy
3:35 AM 59.9 °F - 59.0 °F 97% 30.14 in 0.8 mi Calm Calm - N/A   Overcast
3:55 AM 60.3 °F - 59.7 °F 98% 30.14 in 4.0 mi Calm Calm - N/A   Overcast
4:15 AM 61.5 °F - 60.8 °F 97% 30.15 in 2.5 mi Calm Calm - N/A   Overcast
4:35 AM 62.1 °F - 61.3 °F 97% 30.15 in 0.2 mi Calm Calm - N/A Fog Fog
4:55 AM 62.2 °F - 61.7 °F 98% 30.14 in 0.2 mi Calm Calm - N/A Fog Fog
5:15 AM 62.6 °F - 61.9 °F 97% 30.14 in 0.5 mi SSE 3.5 mph - N/A Fog Fog
5:35 AM 62.8 °F - 62.1 °F 97% 30.13 in 0.5 mi South 5.8 mph - N/A Fog Fog
5:55 AM 62.8 °F - 62.1 °F 97% 30.13 in 0.5 mi South 3.5 mph - N/A Fog Fog
6:15 AM 62.8 °F - 62.1 °F 97% 30.13 in 0.5 mi South 3.5 mph - N/A Fog Fog
6:35 AM 62.6 °F - 61.7 °F 97% 30.14 in 0.5 mi South 3.5 mph - N/A Fog Fog
6:50 AM 62.6 °F - 61.7 °F 97% 30.14 in 0.5 mi Calm Calm - N/A Fog Fog
7:15 AM 62.8 °F - 62.1 °F 97% 30.15 in 0.2 mi Calm Calm - N/A Fog Fog
7:35 AM 63.1 °F - 62.6 °F 98% 30.15 in 0.2 mi Calm Calm - N/A Fog Fog
7:55 AM 63.5 °F - 62.6 °F 97% 30.15 in 0.2 mi Calm Calm - N/A Fog Fog
8:15 AM 63.7 °F - 63.0 °F 97% 30.16 in 0.5 mi Calm Calm - N/A Fog Fog
8:35 AM 64.4 °F - 63.5 °F 97% 30.16 in 0.8 mi Calm Calm - N/A   Overcast
8:55 AM 64.9 °F - 64.4 °F 98% 30.16 in 1.5 mi Calm Calm - N/A   Overcast
9:15 AM 65.7 °F - 64.9 °F 98% 30.16 in 4.0 mi South 3.5 mph - N/A   Overcast
9:30 AM 66.2 °F - 65.5 °F 98% 30.16 in 5.0 mi South 3.5 mph - N/A   Overcast
9:55 AM 67.8 °F - 67.1 °F 98% 30.15 in 10.0 mi South 6.9 mph - N/A   Overcast
10:15 AM 68.4 °F - 67.5 °F 97% 30.16 in 10.0 mi SSW 5.8 mph - N/A   Overcast
10:35 AM 69.4 °F - 68.4 °F 96% 30.15 in 10.0 mi SSW 4.6 mph - N/A   Mostly Cloudy
10:55 AM 70.5 °F - 68.9 °F 95% 30.15 in 10.0 mi SSW 5.8 mph - N/A   Mostly Cloudy
11:15 AM 72.7 °F - 69.8 °F 91% 30.15 in 10.0 mi SSW 3.5 mph - N/A   Scattered Clouds
11:35 AM 75.2 °F - 68.4 °F 79% 30.14 in 10.0 mi South 3.5 mph - N/A   Scattered Clouds
11:55 AM 77.0 °F - 68.7 °F 75% 30.13 in 10.0 mi South 5.8 mph - N/A   Scattered Clouds
12:15 PM 77.9 °F - 68.9 °F 74% 30.13 in 10.0 mi South 6.9 mph - N/A   Scattered Clouds
12:35 PM 78.4 °F - 68.9 °F 72% 30.12 in 10.0 mi SSE 6.9 mph - N/A   Scattered Clouds
12:55 PM 79.0 °F - 68.7 °F 71% 30.12 in 10.0 mi South 6.9 mph - N/A   Scattered Clouds
1:15 PM 79.7 °F - 68.9 °F 69% 30.11 in 10.0 mi SSW 3.5 mph - N/A   Clear
1:35 PM 80.2 °F 83.2 °F 69.1 °F 69% 30.10 in 10.0 mi SE 5.8 mph - N/A   Clear
1:55 PM 80.8 °F 84.1 °F 69.6 °F 69% 30.10 in 10.0 mi South 3.5 mph - N/A   Clear
2:35 PM 81.5 °F 84.9 °F 69.6 °F 67% 30.09 in 10.0 mi SSE 8.1 mph - N/A   Clear
2:55 PM 82.4 °F 86.5 °F 70.3 °F 67% 30.09 in 10.0 mi SSW 4.6 mph - N/A   Scattered Clouds
3:15 PM 82.6 °F 86.8 °F 70.5 °F 67% 30.08 in 10.0 mi SSE 4.6 mph - N/A   Scattered Clouds
3:35 PM 82.9 °F 87.2 °F 70.7 °F 66% 30.08 in 10.0 mi SSW 8.1 mph - N/A   Scattered Clouds
3:55 PM 82.8 °F 86.9 °F 70.3 °F 66% 30.07 in 10.0 mi SSE 8.1 mph - N/A   Mostly Cloudy
4:15 PM 83.1 °F 87.3 °F 70.2 °F 65% 30.07 in 10.0 mi South 8.1 mph - N/A   Mostly Cloudy
4:35 PM 84.7 °F 89.7 °F 70.7 °F 63% 30.06 in 10.0 mi South 9.2 mph - N/A   Mostly Cloudy
4:55 PM 83.3 °F 87.4 °F 69.8 °F 64% 30.06 in 10.0 mi SSW 10.4 mph - N/A   Mostly Cloudy
5:15 PM 82.8 °F 86.7 °F 70.0 °F 65% 30.05 in 10.0 mi South 6.9 mph - N/A   Scattered Clouds
5:35 PM 83.3 °F 87.1 °F 69.4 °F 63% 30.05 in 10.0 mi South 8.1 mph - N/A   Scattered Clouds
5:55 PM 82.8 °F 86.4 °F 69.3 °F 64% 30.05 in 10.0 mi South 6.9 mph - N/A   Clear
6:15 PM 82.4 °F 85.8 °F 68.9 °F 64% 30.05 in 10.0 mi SSE 9.2 mph - N/A   Clear
6:35 PM 81.9 °F 85.2 °F 69.1 °F 65% 30.05 in 10.0 mi SSE 8.1 mph - N/A   Clear
6:55 PM 81.0 °F 84.2 °F 69.4 °F 68% 30.05 in 10.0 mi South 5.8 mph - N/A   Clear
7:15 PM 79.7 °F - 69.8 °F 72% 30.05 in 10.0 mi SSE 5.8 mph - N/A   Clear
7:35 PM 78.3 °F - 69.8 °F 75% 30.04 in 10.0 mi SSE 4.6 mph - N/A   Clear
7:55 PM 76.6 °F - 69.8 °F 79% 30.05 in 10.0 mi SSE 4.6 mph - N/A   Clear
8:15 PM 75.2 °F - 69.4 °F 82% 30.05 in 10.0 mi SSE 4.6 mph - N/A   Clear
8:35 PM 73.2 °F - 69.3 °F 87% 30.05 in 10.0 mi Calm Calm - N/A   Clear
8:55 PM 71.6 °F - 68.9 °F 91% 30.06 in 10.0 mi Calm Calm - N/A   Clear
9:15 PM 70.7 °F - 68.4 °F 92% 30.06 in 10.0 mi Calm Calm - N/A   Clear
9:35 PM 70.5 °F - 68.2 °F 92% 30.06 in 10.0 mi SE 3.5 mph - N/A   Clear
9:55 PM 69.8 °F - 67.8 °F 93% 30.07 in 10.0 mi SE 3.5 mph - N/A   Clear
10:15 PM 69.8 °F - 67.6 °F 93% 30.07 in 10.0 mi SE 3.5 mph - N/A   Clear
10:35 PM 69.1 °F - 67.3 °F 94% 30.08 in 10.0 mi SSE 3.5 mph - N/A   Clear
10:55 PM 69.4 °F - 67.5 °F 93% 30.08 in 10.0 mi SSE 4.6 mph - N/A   Clear
11:15 PM 68.9 °F - 67.1 °F 94% 30.08 in 10.0 mi SSE 3.5 mph - N/A   Clear
11:35 PM 68.9 °F - 67.1 °F 94% 30.08 in 10.0 mi SE 3.5 mph - N/A   Clear
11:55 PM 68.5 °F - 66.9 °F 95% 30.08 in 10.0 mi Calm Calm - N/A   Clear